| time (UTC) | temp F | wind direction | speed MPH | gust MPH | rain 1hr in | rain 24hr in | rain mn in | humidity % | barometer mb |
| 20260504223205 | 53 | 1 | 0.0 | 0.0 | 0.07 | 0.40 | 0.02 | 91 | 1011.8 |
| 20260504222705 | 54 | 9 | 0.0 | 2.0 | 0.08 | 0.40 | 0.02 | 91 | 1011.9 |
| 20260504222511 | 54 | 32 | 0.0 | 2.0 | 0.02 | 0.02 | 0.02 | 91 | 1010.8 |
| 20260504222205 | 54 | 356 | 0.0 | 0.0 | 0.08 | 0.39 | 0.01 | 91 | 1012.0 |
| 20260504221706 | 54 | 7 | 0.0 | 0.0 | 0.09 | 0.39 | 0.01 | 91 | 1012.0 |
| 20260504221511 | 54 | 6 | 0.0 | 0.0 | 0.01 | 0.01 | 0.01 | 91 | 1010.9 |
| 20260504221205 | 54 | 4 | 0.0 | 0.0 | 0.09 | 0.39 | 0.01 | 91 | 1012.0 |
| 20260504220705 | 54 | 351 | 0.0 | 1.0 | 0.09 | 0.39 | 0.00 | 91 | 1012.0 |
| 20260504220206 | 54 | 327 | 0.0 | 2.0 | 0.09 | 0.39 | 0.00 | 91 | 1012.1 |
| 20260504215705 | 55 | 15 | 0.0 | 0.0 | 0.09 | 0.39 | 0.39 | 91 | 1012.1 |
| 20260504215511 | 55 | 15 | 0.0 | 0.0 | 0.08 | 0.38 | 0.38 | 91 | 1011.1 |
| 20260504215206 | 55 | 15 | 0.0 | 0.0 | 0.08 | 0.38 | 0.38 | 91 | 1012.3 |
| 20260504214705 | 55 | 119 | 0.0 | 0.0 | 0.08 | 0.38 | 0.38 | 91 | 1012.3 |
| 20260504214511 | 55 | 48 | 0.0 | 0.0 | 0.07 | 0.37 | 0.37 | 91 | 1011.3 |
| 20260504214205 | 55 | 56 | 0.0 | 1.0 | 0.07 | 0.37 | 0.37 | 91 | 1012.4 |
| 20260504213705 | 55 | 354 | 0.0 | 0.0 | 0.05 | 0.35 | 0.35 | 91 | 1012.3 |
| 20260504213511 | 55 | 354 | 0.0 | 0.0 | 0.05 | 0.34 | 0.34 | 91 | 1011.3 |
| 20260504213206 | 55 | 354 | 0.0 | 0.0 | 0.04 | 0.33 | 0.33 | 91 | 1012.4 |
| 20260504212705 | 55 | 354 | 0.0 | 0.0 | 0.03 | 0.32 | 0.32 | 91 | 1012.4 |
| 20260504212511 | 55 | 354 | 0.0 | 1.0 | 0.03 | 0.32 | 0.32 | 90 | 1011.3 |
| 20260504212206 | 55 | 357 | 0.0 | 0.0 | 0.02 | 0.31 | 0.31 | 90 | 1012.3 |
| 20260504211705 | 55 | 0 | 0.0 | 0.0 | 0.02 | 0.31 | 0.31 | 91 | 1012.4 |
| 20260504211511 | 55 | 360 | 0.0 | 0.0 | 0.02 | 0.31 | 0.31 | 91 | 1011.3 |
| 20260504211205 | 55 | 357 | 0.0 | 0.0 | 0.01 | 0.30 | 0.30 | 91 | 1012.4 |
| 20260504210706 | 55 | 13 | 0.0 | 0.0 | 0.01 | 0.30 | 0.30 | 90 | 1012.3 |
| 20260504210511 | 55 | 340 | 0.0 | 0.0 | 0.01 | 0.30 | 0.30 | 90 | 1011.3 |
| 20260504210205 | 55 | 324 | 0.0 | 0.0 | 0.01 | 0.30 | 0.30 | 90 | 1012.3 |
| 20260504205705 | 56 | 304 | 0.0 | 0.0 | 0.01 | 0.30 | 0.30 | 90 | 1012.2 |
| 20260504205205 | 56 | 303 | 0.0 | 0.0 | 0.01 | 0.30 | 0.30 | 90 | 1012.3 |
| 20260504204705 | 56 | 338 | 0.0 | 1.0 | 0.02 | 0.30 | 0.30 | 90 | 1012.1 |
| 20260504204511 | 56 | 2 | 0.0 | 1.0 | 0.02 | 0.30 | 0.30 | 90 | 1011.1 |
| 20260504203705 | 56 | 354 | 0.0 | 2.0 | 0.02 | 0.30 | 0.30 | 90 | 1012.1 |
| 20260504203205 | 56 | 341 | 0.0 | 0.0 | 0.02 | 0.29 | 0.29 | 90 | 1012.1 |
| 20260504202705 | 57 | 0 | 0.0 | 0.0 | 0.03 | 0.29 | 0.29 | 90 | 1012.1 |
| 20260504202511 | 57 | 5 | 0.0 | 0.0 | 0.04 | 0.29 | 0.29 | 90 | 1011.0 |
| 20260504202205 | 57 | 347 | 0.0 | 1.0 | 0.04 | 0.29 | 0.29 | 90 | 1012.1 |
| 20260504201705 | 57 | 347 | 0.0 | 1.0 | 0.05 | 0.29 | 0.29 | 90 | 1012.1 |
| 20260504201511 | 57 | 299 | 0.0 | 1.0 | 0.06 | 0.29 | 0.29 | 90 | 1011.1 |
| 20260504201206 | 57 | 298 | 0.0 | 1.0 | 0.07 | 0.29 | 0.29 | 90 | 1012.1 |
| 20260504200705 | 57 | 287 | 0.0 | 1.0 | 0.09 | 0.29 | 0.29 | 90 | 1012.0 |
| 20260504200511 | 58 | 312 | 0.0 | 1.0 | 0.10 | 0.29 | 0.29 | 90 | 1011.0 |
| 20260504200205 | 58 | 6 | 0.0 | 0.0 | 0.13 | 0.29 | 0.29 | 90 | 1011.9 |
| 20260504195705 | 58 | 340 | 0.0 | 0.0 | 0.15 | 0.29 | 0.29 | 90 | 1011.8 |
| 20260504195510 | 58 | 360 | 0.0 | 0.0 | 0.15 | 0.29 | 0.29 | 89 | 1010.8 |
| 20260504195205 | 58 | 354 | 0.0 | 0.0 | 0.17 | 0.29 | 0.29 | 90 | 1011.8 |
| 20260504194705 | 58 | 359 | 0.0 | 0.0 | 0.18 | 0.28 | 0.28 | 90 | 1011.9 |
| 20260504194510 | 58 | 356 | 0.0 | 0.0 | 0.19 | 0.28 | 0.28 | 89 | 1010.9 |
| 20260504194205 | 58 | 7 | 0.0 | 0.0 | 0.19 | 0.28 | 0.28 | 89 | 1011.9 |
| 20260504193705 | 58 | 9 | 0.0 | 1.0 | 0.18 | 0.28 | 0.28 | 89 | 1012.0 |
| 20260504193511 | 58 | 331 | 0.0 | 1.0 | 0.17 | 0.27 | 0.27 | 89 | 1010.9 |
| 20260504193205 | 58 | 348 | 0.0 | 2.0 | 0.17 | 0.27 | 0.27 | 89 | 1012.0 |
| 20260504192706 | 58 | 7 | 0.0 | 0.0 | 0.17 | 0.26 | 0.26 | 89 | 1011.9 |
| 20260504192510 | 58 | 16 | 0.0 | 0.0 | 0.17 | 0.25 | 0.25 | 86 | 1010.8 |
| 20260504192205 | 58 | 354 | 0.0 | 0.0 | 0.18 | 0.25 | 0.25 | 88 | 1011.9 |
| 20260504191705 | 58 | 356 | 0.0 | 1.0 | 0.17 | 0.24 | 0.24 | 88 | 1011.9 |
| 20260504191511 | 59 | 21 | 0.0 | 1.0 | 0.17 | 0.24 | 0.24 | 87 | 1010.9 |
| 20260504191205 | 59 | 7 | 0.0 | 2.0 | 0.15 | 0.22 | 0.22 | 87 | 1011.9 |
| 20260504190510 | 59 | 84 | 0.0 | 0.0 | 0.12 | 0.19 | 0.19 | 86 | 1010.9 |
| 20260504190205 | 59 | 7 | 0.0 | 0.0 | 0.09 | 0.17 | 0.17 | 86 | 1011.9 |
| 20260504185705 | 60 | 332 | 0.0 | 0.0 | 0.07 | 0.14 | 0.14 | 85 | 1011.8 |
| 20260504185511 | 60 | 18 | 0.0 | 0.0 | 0.07 | 0.14 | 0.14 | 85 | 1010.8 |
| 20260504185205 | 60 | 345 | 0.0 | 0.0 | 0.06 | 0.13 | 0.13 | 85 | 1011.8 |
| 20260504184705 | 61 | 26 | 0.0 | 0.0 | 0.03 | 0.10 | 0.10 | 84 | 1011.7 |
| 20260504184510 | 61 | 340 | 0.0 | 0.0 | 0.02 | 0.09 | 0.09 | 84 | 1010.7 |
| 20260504183705 | 61 | 22 | 0.0 | 0.0 | 0.02 | 0.09 | 0.09 | 83 | 1011.6 |
| 20260504183205 | 62 | 348 | 0.0 | 0.0 | 0.02 | 0.09 | 0.09 | 81 | 1011.5 |
| 20260504182705 | 62 | 354 | 0.0 | 0.0 | 0.02 | 0.09 | 0.09 | 80 | 1011.5 |
| 20260504182510 | 63 | 350 | 0.0 | 1.0 | 0.01 | 0.08 | 0.08 | 79 | 1010.6 |
| 20260504182205 | 62 | 5 | 0.0 | 1.0 | 0.00 | 0.07 | 0.07 | 78 | 1011.5 |
| 20260504181704 | 63 | 13 | 0.0 | 0.0 | 0.00 | 0.07 | 0.07 | 78 | 1011.4 |
| 20260504181510 | 63 | 360 | 0.0 | 0.0 | 0.00 | 0.07 | 0.07 | 78 | 1010.5 |
| 20260504181204 | 63 | 36 | 0.0 | 0.0 | 0.00 | 0.07 | 0.07 | 78 | 1011.4 |
| 20260504180705 | 63 | 356 | 0.0 | 0.0 | 0.00 | 0.07 | 0.07 | 77 | 1011.4 |
| 20260504180510 | 63 | 71 | 0.0 | 0.0 | 0.00 | 0.07 | 0.07 | 77 | 1010.4 |
| 20260504180205 | 63 | 352 | 0.0 | 2.0 | 0.00 | 0.07 | 0.07 | 77 | 1011.4 |
| 20260504175705 | 63 | 358 | 0.0 | 0.0 | 0.00 | 0.07 | 0.07 | 77 | 1011.3 |
| 20260504175511 | 64 | 350 | 0.0 | 0.0 | 0.00 | 0.07 | 0.07 | 77 | 1010.4 |
| 20260504175205 | 64 | 353 | 0.0 | 0.0 | 0.00 | 0.07 | 0.07 | 77 | 1011.3 |
| 20260504174705 | 64 | 353 | 0.0 | 0.0 | 0.00 | 0.07 | 0.07 | 77 | 1011.3 |
| 20260504174511 | 64 | 358 | 0.0 | 0.0 | 0.00 | 0.07 | 0.07 | 77 | 1010.4 |
| 20260504174205 | 64 | 7 | 0.0 | 0.0 | 0.00 | 0.07 | 0.07 | 77 | 1011.2 |
| 20260504173705 | 64 | 343 | 0.0 | 0.0 | 0.00 | 0.07 | 0.07 | 77 | 1011.1 |
| 20260504173510 | 64 | 15 | 0.0 | 0.0 | 0.00 | 0.07 | 0.07 | 77 | 1010.3 |
| 20260504173205 | 64 | 350 | 0.0 | 0.0 | 0.00 | 0.07 | 0.07 | 77 | 1011.2 |
| 20260504172704 | 64 | 0 | 0.0 | 0.0 | 0.00 | 0.07 | 0.07 | 76 | 1011.2 |
| 20260504172510 | 64 | 21 | 0.0 | 0.0 | 0.00 | 0.07 | 0.07 | 76 | 1010.3 |
| 20260504171705 | 65 | 25 | 0.0 | 0.0 | 0.00 | 0.07 | 0.07 | 75 | 1011.1 |
| 20260504171510 | 65 | 283 | 0.0 | 0.0 | 0.00 | 0.07 | 0.07 | 75 | 1010.2 |
| 20260504171205 | 66 | 10 | 0.0 | 0.0 | 0.00 | 0.07 | 0.07 | 75 | 1011.0 |
| 20260504170705 | 66 | 351 | 0.0 | 0.0 | 0.00 | 0.07 | 0.07 | 74 | 1011.0 |
| 20260504170510 | 66 | 350 | 0.0 | 0.0 | 0.00 | 0.07 | 0.07 | 74 | 1010.1 |
| 20260504170205 | 66 | 2 | 0.0 | 0.0 | 0.00 | 0.07 | 0.07 | 73 | 1011.0 |
| 20260504160205 | 66 | 304 | 0.0 | 0.0 | 0.00 | 0.07 | 0.07 | 72 | 1011.1 |
| 20260504150510 | 65 | 4 | 0.0 | 0.0 | 0.01 | 0.07 | 0.07 | 77 | 1010.5 |
| 20260504150205 | 64 | 266 | 0.0 | 0.0 | 0.01 | 0.07 | 0.07 | 77 | 1011.5 |
| 20260504141205 | 65 | 353 | 0.0 | 0.0 | 0.00 | 0.06 | 0.06 | 75 | 1011.8 |
| 20260504140705 | 65 | 332 | 0.0 | 0.0 | 0.00 | 0.06 | 0.06 | 76 | 1011.8 |
| 20260504140510 | 65 | 332 | 0.0 | 0.0 | 0.00 | 0.06 | 0.06 | 76 | 1010.9 |
| 20260504140205 | 65 | 297 | 0.0 | 0.0 | 0.00 | 0.06 | 0.06 | 76 | 1011.8 |
| 20260504130704 | 64 | 355 | 0.0 | 0.0 | 0.00 | 0.06 | 0.06 | 81 | 1012.0 |
| 20260504130510 | 64 | 13 | 0.0 | 0.0 | 0.00 | 0.06 | 0.06 | 80 | 1011.1 |
| 20260504130204 | 64 | 314 | 0.0 | 0.0 | 0.00 | 0.06 | 0.06 | 80 | 1012.0 |
| 20260504110512 | 63 | 283 | 0.0 | 0.0 | 0.06 | 0.06 | 0.06 | 84 | 1011.3 |
| 20260504110204 | 63 | 298 | 0.0 | 0.0 | 0.06 | 0.06 | 0.06 | 82 | 1012.3 |
| 20260504081704 | 62 | 152 | 0.0 | 0.0 | 0.00 | 0.00 | 0.00 | 80 | 1012.2 |
| 20260504081511 | 62 | 152 | 0.0 | 0.0 | 0.00 | 0.00 | 0.00 | 80 | 1011.3 |
| 20260504081204 | 62 | 65 | 0.0 | 0.0 | 0.00 | 0.00 | 0.00 | 81 | 1012.2 |
| 20260504080704 | 62 | 65 | 0.0 | 0.0 | 0.00 | 0.00 | 0.00 | 81 | 1012.2 |
| 20260504080512 | 62 | 65 | 0.0 | 0.0 | 0.00 | 0.00 | 0.00 | 81 | 1011.2 |
| 20260504080204 | 61 | 65 | 0.0 | 0.0 | 0.00 | 0.00 | 0.00 | 81 | 1012.1 |
| 20260504070204 | 60 | 17 | 0.0 | 0.0 | 0.00 | 0.00 | 0.00 | 83 | 1012.0 |
| 20260504060204 | 60 | 288 | 0.0 | 0.0 | 0.00 | 0.00 | 0.00 | 86 | 1011.5 |
| 20260504050512 | 59 | 248 | 0.0 | 0.0 | 0.00 | 0.00 | 0.00 | 87 | 1010.2 |
| 20260504050206 | 59 | 244 | 0.0 | 0.0 | 0.00 | 0.00 | 0.00 | 87 | 1011.2 |
| 20260504045206 | 59 | 239 | 0.0 | 0.0 | 0.00 | 0.00 | 0.00 | 87 | 1011.1 |
| 20260504044706 | 59 | 243 | 0.0 | 0.0 | 0.00 | 0.00 | 0.00 | 87 | 1011.1 |
| 20260504044206 | 59 | 236 | 0.0 | 0.0 | 0.00 | 0.00 | 0.00 | 87 | 1011.0 |
| 20260504042706 | 59 | 225 | 0.0 | 0.0 | 0.00 | 0.00 | 0.00 | 87 | 1010.9 |
| 20260504042512 | 59 | 231 | 0.0 | 0.0 | 0.00 | 0.00 | 0.00 | 87 | 1009.9 |
| 20260504041705 | 59 | 233 | 0.0 | 0.0 | 0.00 | 0.00 | 0.00 | 88 | 1011.0 |
| 20260504041512 | 59 | 244 | 0.0 | 0.0 | 0.00 | 0.00 | 0.00 | 88 | 1010.0 |
| 20260504041206 | 59 | 225 | 0.0 | 0.0 | 0.00 | 0.00 | 0.00 | 88 | 1010.9 |
| 20260504040706 | 59 | 234 | 0.0 | 0.0 | 0.00 | 0.00 | 0.00 | 88 | 1011.0 |
| 20260504040205 | 59 | 229 | 0.0 | 0.0 | 0.00 | 0.00 | 0.00 | 88 | 1010.9 |
| 20260504035706 | 59 | 257 | 0.0 | 0.0 | 0.00 | 0.00 | 0.00 | 88 | 1010.9 |
| 20260504035511 | 59 | 269 | 0.0 | 0.0 | 0.00 | 0.00 | 0.00 | 88 | 1009.9 |
| 20260504035206 | 59 | 224 | 0.0 | 0.0 | 0.00 | 0.00 | 0.00 | 88 | 1010.9 |
| 20260504034705 | 59 | 235 | 0.0 | 0.0 | 0.00 | 0.00 | 0.00 | 88 | 1011.0 |
| 20260504034511 | 59 | 255 | 0.0 | 0.0 | 0.00 | 0.00 | 0.00 | 88 | 1009.9 |
| 20260504033706 | 59 | 208 | 0.0 | 0.0 | 0.00 | 0.00 | 0.00 | 88 | 1010.8 |
| 20260504033206 | 59 | 269 | 0.0 | 0.0 | 0.00 | 0.00 | 0.00 | 88 | 1010.8 |
| 20260504032705 | 59 | 245 | 0.0 | 0.0 | 0.00 | 0.00 | 0.00 | 88 | 1010.8 |
| 20260504032511 | 58 | 261 | 0.0 | 0.0 | 0.00 | 0.00 | 0.00 | 88 | 1009.8 |
| 20260504032206 | 58 | 224 | 0.0 | 0.0 | 0.00 | 0.00 | 0.00 | 89 | 1010.7 |
| 20260504031511 | 58 | 213 | 0.0 | 0.0 | 0.00 | 0.00 | 0.00 | 89 | 1009.6 |
| 20260504031206 | 58 | 213 | 0.0 | 0.0 | 0.00 | 0.00 | 0.00 | 89 | 1010.7 |
| 20260504030705 | 58 | 211 | 0.0 | 0.0 | 0.00 | 0.00 | 0.00 | 89 | 1010.7 |
| 20260504025706 | 58 | 209 | 0.0 | 1.0 | 0.00 | 0.00 | 0.00 | 89 | 1010.6 |
| 20260504025511 | 58 | 208 | 0.0 | 0.0 | 0.00 | 0.00 | 0.00 | 89 | 1009.6 |
| 20260504024705 | 58 | 211 | 0.0 | 0.0 | 0.00 | 0.00 | 0.00 | 89 | 1010.7 |
| 20260504024511 | 58 | 210 | 0.0 | 0.0 | 0.00 | 0.00 | 0.00 | 89 | 1009.7 |
| 20260504024206 | 58 | 194 | 0.0 | 0.0 | 0.00 | 0.00 | 0.00 | 89 | 1010.6 |
| 20260504023511 | 58 | 217 | 0.0 | 0.0 | 0.00 | 0.00 | 0.00 | 89 | 1009.5 |
| 20260504022706 | 58 | 217 | 0.0 | 0.0 | 0.00 | 0.00 | 0.00 | 89 | 1010.5 |
| 20260504022511 | 58 | 217 | 0.0 | 0.0 | 0.00 | 0.00 | 0.00 | 90 | 1009.5 |
| 20260504022205 | 58 | 217 | 0.0 | 0.0 | 0.00 | 0.00 | 0.00 | 92 | 1010.5 |
| 20260504021706 | 57 | 214 | 0.0 | 0.0 | 0.00 | 0.00 | 0.00 | 89 | 1010.5 |
| 20260504021511 | 57 | 214 | 0.0 | 0.0 | 0.00 | 0.00 | 0.00 | 89 | 1009.5 |
| 20260504021205 | 57 | 265 | 0.0 | 0.0 | 0.00 | 0.00 | 0.00 | 89 | 1010.5 |
| 20260504020705 | 57 | 265 | 0.0 | 0.0 | 0.00 | 0.00 | 0.00 | 89 | 1010.5 |
| 20260504020512 | 57 | 265 | 0.0 | 0.0 | 0.00 | 0.00 | 0.00 | 89 | 1009.4 |
| 20260504020205 | 57 | 265 | 0.0 | 0.0 | 0.00 | 0.00 | 0.00 | 89 | 1010.4 |
| 20260504015706 | 57 | 265 | 0.0 | 0.0 | 0.00 | 0.00 | 0.00 | 88 | 1010.5 |
| 20260504015511 | 57 | 265 | 0.0 | 0.0 | 0.00 | 0.00 | 0.00 | 88 | 1009.5 |
| 20260504015205 | 57 | 265 | 0.0 | 0.0 | 0.00 | 0.00 | 0.00 | 88 | 1010.5 |
| 20260504014705 | 57 | 265 | 0.0 | 0.0 | 0.00 | 0.00 | 0.00 | 88 | 1010.4 |
| 20260504014206 | 57 | 265 | 0.0 | 0.0 | 0.00 | 0.00 | 0.00 | 88 | 1010.4 |
| 20260504013511 | 58 | 265 | 0.0 | 0.0 | 0.00 | 0.00 | 0.00 | 88 | 1009.4 |
| 20260504012705 | 58 | 265 | 0.0 | 0.0 | 0.00 | 0.00 | 0.00 | 88 | 1010.3 |
| 20260504012511 | 58 | 265 | 0.0 | 0.0 | 0.00 | 0.00 | 0.00 | 88 | 1009.3 |
| 20260504012205 | 58 | 265 | 0.0 | 0.0 | 0.00 | 0.00 | 0.00 | 88 | 1010.3 |
| 20260504011705 | 58 | 265 | 0.0 | 0.0 | 0.00 | 0.00 | 0.00 | 88 | 1010.2 |
| 20260504011206 | 58 | 265 | 0.0 | 0.0 | 0.00 | 0.00 | 0.00 | 88 | 1010.2 |
| 20260504010706 | 58 | 227 | 0.0 | 0.0 | 0.00 | 0.00 | 0.00 | 88 | 1010.2 |
| 20260504010511 | 58 | 227 | 0.0 | 0.0 | 0.00 | 0.00 | 0.00 | 88 | 1009.2 |
| 20260504010205 | 58 | 227 | 0.0 | 0.0 | 0.00 | 0.00 | 0.00 | 87 | 1010.2 |
| 20260504005705 | 58 | 250 | 0.0 | 0.0 | 0.00 | 0.00 | 0.00 | 87 | 1010.1 |
| 20260504005511 | 58 | 250 | 0.0 | 0.0 | 0.00 | 0.00 | 0.00 | 87 | 1009.1 |
| 20260504005205 | 58 | 250 | 0.0 | 0.0 | 0.00 | 0.00 | 0.00 | 87 | 1010.1 |
| 20260504004705 | 58 | 250 | 0.0 | 0.0 | 0.00 | 0.00 | 0.00 | 86 | 1010.1 |
| 20260504004206 | 59 | 250 | 0.0 | 0.0 | 0.00 | 0.00 | 0.00 | 86 | 1010.1 |
| 20260504003705 | 59 | 240 | 0.0 | 0.0 | 0.00 | 0.00 | 0.00 | 86 | 1010.0 |
| 20260504003511 | 59 | 208 | 0.0 | 0.0 | 0.00 | 0.00 | 0.00 | 86 | 1009.0 |
| 20260504002705 | 59 | 208 | 0.0 | 0.0 | 0.00 | 0.00 | 0.00 | 86 | 1010.1 |
| 20260504002511 | 59 | 208 | 0.0 | 0.0 | 0.00 | 0.00 | 0.00 | 86 | 1009.1 |
| 20260504002206 | 59 | 208 | 0.0 | 0.0 | 0.00 | 0.00 | 0.00 | 85 | 1010.1 |
| 20260504001705 | 59 | 260 | 0.0 | 0.0 | 0.00 | 0.00 | 0.00 | 86 | 1010.1 |
| 20260504001511 | 60 | 260 | 0.0 | 0.0 | 0.00 | 0.00 | 0.00 | 86 | 1009.1 |
| 20260504001206 | 60 | 260 | 0.0 | 0.0 | 0.00 | 0.00 | 0.00 | 86 | 1010.2 |
| 20260504000705 | 60 | 247 | 0.0 | 0.0 | 0.00 | 0.00 | 0.00 | 85 | 1010.2 |
| 20260504000511 | 60 | 247 | 0.0 | 0.0 | 0.00 | 0.00 | 0.00 | 85 | 1009.2 |
| 20260504000205 | 60 | 212 | 0.0 | 0.0 | 0.00 | 0.00 | 0.00 | 85 | 1010.2 |
| 20260503235705 | 60 | 246 | 0.0 | 0.0 | 0.00 | 0.00 | 0.00 | 85 | 1010.2 |
| 20260503235511 | 60 | 246 | 0.0 | 1.0 | 0.00 | 0.00 | 0.00 | 85 | 1009.1 |
| 20260503235205 | 60 | 246 | 0.0 | 1.0 | 0.00 | 0.00 | 0.00 | 85 | 1010.2 |
| 20260503234705 | 60 | 246 | 0.0 | 0.0 | 0.00 | 0.00 | 0.00 | 85 | 1010.2 |
| 20260503234511 | 60 | 246 | 0.0 | 0.0 | 0.00 | 0.00 | 0.00 | 85 | 1009.1 |
| 20260503234205 | 60 | 241 | 0.0 | 0.0 | 0.00 | 0.00 | 0.00 | 85 | 1010.2 |
| 20260503233511 | 60 | 239 | 0.0 | 0.0 | 0.00 | 0.00 | 0.00 | 84 | 1009.1 |
| 20260503233205 | 60 | 225 | 0.0 | 0.0 | 0.00 | 0.00 | 0.00 | 84 | 1010.2 |
| 20260503232705 | 60 | 188 | 0.0 | 3.0 | 0.00 | 0.00 | 0.00 | 84 | 1010.2 |
| 20260503232511 | 60 | 207 | 0.0 | 5.0 | 0.00 | 0.00 | 0.00 | 84 | 1009.2 |
| 20260503232206 | 60 | 232 | 0.0 | 0.0 | 0.00 | 0.00 | 0.00 | 84 | 1010.2 |
| 20260503231705 | 60 | 241 | 0.0 | 0.0 | 0.00 | 0.00 | 0.00 | 84 | 1010.1 |
| 20260503231511 | 60 | 246 | 0.0 | 0.0 | 0.00 | 0.00 | 0.00 | 84 | 1009.1 |
| 20260503231205 | 60 | 215 | 0.0 | 0.0 | 0.00 | 0.00 | 0.00 | 84 | 1010.1 |
| 20260503230706 | 60 | 247 | 0.0 | 0.0 | 0.00 | 0.01 | 0.00 | 84 | 1010.1 |
| 20260503230512 | 60 | 242 | 0.0 | 0.0 | 0.00 | 0.00 | 0.00 | 84 | 1009.1 |
| 20260503230206 | 60 | 230 | 0.0 | 0.0 | 0.00 | 0.01 | 0.00 | 84 | 1010.2 |
| 20260503225705 | 60 | 234 | 0.0 | 0.0 | 0.00 | 0.01 | 0.00 | 85 | 1010.2 |
| 20260503225511 | 60 | 227 | 0.0 | 0.0 | 0.00 | 0.00 | 0.00 | 85 | 1009.2 |
| 20260503225206 | 60 | 233 | 0.0 | 0.0 | 0.00 | 0.01 | 0.00 | 85 | 1010.2 |
| 20260503224705 | 60 | 206 | 0.0 | 0.0 | 0.00 | 0.02 | 0.00 | 85 | 1010.1 |
| 20260503224511 | 60 | 229 | 0.0 | 0.0 | 0.00 | 0.00 | 0.00 | 85 | 1009.1 |
| 20260503224205 | 59 | 224 | 0.0 | 1.0 | 0.00 | 0.02 | 0.00 | 85 | 1010.1 |
| 20260503223705 | 59 | 209 | 0.0 | 0.0 | 0.00 | 0.02 | 0.00 | 85 | 1010.0 |